Location: Solstice Park, West Seattle
(47.5363°N, 122.3905°W)
Time: 08:21:33
(UTC-07:00)

ISS - Pass Details

Date: 15 May 2021
Orbit: 417 x 422 km, 51.6° (Epoch: 18 June)

Event Time Altitude Azimuth Distance (km) Brightness Sun altitude
Rises 02:20:35 0° 291° (WNW) 2,373 0.1 -21.4°
Reaches altitude 10° 02:22:43 10° 296° (WNW) 1,508 -0.9 -21.3°
Maximum altitude 02:26:02 51° 14° (NNE) 539 -2.9 -21.1°
Drops below altitude 10° 02:29:21 10° 92° (E) 1,507 -0.7 -20.9°
Sets 02:31:29 0° 98° (E) 2,371 0.2 -20.8°
